Regional Weather Roundup
Issued by NWS

Home | Current Version | Previous Version | Text Only | Print | Product List | Glossary On
Versions: 1 2 3 4 5 6 7 8 9 10 11 12 13 14 15 16 17 18 19 20 21 22 23 24 25 26 27 28 29 30 31 32 33 34 35 36 37 38 39 40 41 42 43 44 45 46 47 48 49 50
000
ASUS44 KFWD 161603
RWRTX
NORTH TEXAS HOURLY WEATHER ROUNDUP
NATIONAL WEATHER SERVICE FORT WORTH TX
1100 AM CDT WED AUG 16 2017

NOTE: "FAIR" INDICATES FEW OR NO CLOUDS BELOW 12,000 FEET WITH NO
SIGNIFICANT WEATHER AND/OR OBSTRUCTIONS TO VISIBILITY.

TXZ118-119-161700-
DALLAS/FORT WORTH METROPLEX

CITY           SKY/WX    TMP DP  RH WIND       PRES   REMARKS
DFW AIRPORT    PTSUNNY   89  74  60 S20       29.92S HX  98
DALLAS LOVE    PTSUNNY   88  73  61 SW10G22   29.94S HX  95
FTW MEACHAM    CLOUDY    87  75  67 S14       29.93R HX  96
DAL-EXECUTIVE  MOSUNNY   88  75  65 S10G20    29.94S HX  97
FTW-ALLIANCE   PTSUNNY   87  74  64 S12G21    29.93R HX  95
FTW-NAS-JRB    CLOUDY    87  73  62 S15       29.94R HX  94
FTW-SPINKS     MOSUNNY   90  72  55 S15G23    29.95S HX  96
ARLINGTON      PTSUNNY   87  74  64 S15G26    29.94R HX  95
GRAND PRAIRIE  PTSUNNY   88  72  58 S18G30    29.96R HX  94
ADDISON        MOSUNNY   86  72  62 MISG      29.95S HX  92
MESQUITE       PTSUNNY   84  73  70 S12G21    29.96R HX  91
LANCASTER      MOSUNNY   87  74  65 S14G21    29.96S HX  94
$$

TXZ091>094-102>105-117-120-121-131>134-161700-
NORTH CENTRAL TEXAS

CITY           SKY/WX    TMP DP  RH WIND       PRES   REMARKS
SHRMAN/DENISON CLOUDY   N/A N/A N/A S17       29.95S
GAINESVILLE    CLOUDY    84  72  67 S14G20    29.95S
BOWIE          CLOUDY    80  78  94 S9        29.94R
BRIDGEPORT     PTSUNNY   82  71  68 S10       29.95R
DECATUR        CLOUDY    85  72  65 S10       29.95R HX  91
DENTON         CLOUDY    87  74  64 S15       29.94R HX  95
MCKINNEY       CLOUDY    86  75  69 S16       29.94S HX  95
BONHAM         CLOUDY    84  73  70 S16G23    29.95S HX  91
ROCKWALL       PTSUNNY   86  75  68 S18G26    29.96S HX  95
TERRELL        PTSUNNY   87  73  62 SW17G29   29.97R HX  94
WAXAHACHIE     PTSUNNY   86  74  67 S16G24    29.96S HX  95
CLEBURNE       MOSUNNY   86  75  70 S15G22    29.96S HX  95
GRANBURY       CLOUDY    87  72  60 S15       29.95R HX  93
$$

TXZ083>090-098>101-113>116-127>130-139>142-154-155-161700-
WESTERN NORTH TEXAS

CITY           SKY/WX    TMP DP  RH WIND       PRES   REMARKS
WICHITA FALLS  PTSUNNY   85  72  65 S21G28    29.90S HX  91
WF-KICKAPOO    CLOUDY    83  73  70 S12G20    29.93R
VERNON         MOSUNNY   84  68  57 SW16      29.91R
ABILENE        PTSUNNY   82  73  74 S17G25    29.95R
ABILENE-DYESS  PTSUNNY   84  72  67 S17G26    29.93R
GRAHAM         MOSUNNY   80  76  85 S6        29.93R
CISCO          CLOUDY    81  72  74 S16G24    29.96R
EASTLAND       CLOUDY    82  72  72 S16G22    29.96R
RANGER         CLOUDY    80  71  73 S13G20    29.96S
MINERAL WELLS  MOSUNNY   85  72  65 S10       29.93R HX  91
STEPHENVILLE   CLOUDY    81  71  70 S10       29.99R
COMANCHE       CLOUDY    84  72  66 S14G20    29.97R
BROWNWOOD      CLOUDY    84  72  65 S10G17    29.97R
COLEMAN        CLOUDY    81  72  74 S16G24    29.97S
$$

TXZ143>147-156>162-174-175-161700-
CENTRAL TEXAS

CITY           SKY/WX    TMP DP  RH WIND       PRES   REMARKS
WACO           MOSUNNY   90  73  57 S20G25    29.95S HX  98
WACO-MCGREGOR  MOSUNNY   90  73  57 S21G29    29.95F HX  98
HILLSBORO      PTSUNNY   88  74  62 S18       29.96R HX  97
CORSICANA      PTSUNNY   89  73  59 SW15G24   29.98R HX  97
MEXIA          MOSUNNY   88  73  59 S18G29    29.97S HX  95
HEARNE         PTSUNNY   86  75  70 S13       29.99R HX  95
CAMERON        MOSUNNY   88  73  59 SW16G22   29.98R HX  96
TEMPLE         SUNNY     88  72  58 S20       29.97R HX  94
KILLEEN        CLOUDY    86  73  66 S15G23    29.96S HX  93
KILLEEN-SKYLRK CLOUDY    86  72  62 S18G26    29.97R HX  92
FORT HOOD      CLOUDY    85  71  63 S18       29.94R HX  90
HAMILTON       CLOUDY    84  71  63 S17G24    29.99R
LAMPASAS       CLOUDY    83  74  73 SW13G20   29.97S
$$

TXZ095>097-106>112-122>126-135>138-148>153-164>167-161700-
EAST TEXAS

CITY           SKY/WX    TMP DP  RH WIND       PRES   REMARKS
PARIS          PTSUNNY   87  75  67 SW20      29.97F HX  96
SULPHUR SPRNGS MOSUNNY   86  74  68 SW15G21   29.99S HX  94
MOUNT PLEASANT MOSUNNY   85  73  66 S10G16    30.00S HX  92
GILMER         PTSUNNY   84  75  74 S7        30.00R HX  92
MINEOLA        CLOUDY    86  75  70 S9G18     29.99R HX  95
TYLER          MOSUNNY   88  75  65 SW21      30.00R HX  97
LONGVIEW       PTSUNNY   88  79  74 SW12      30.00R HX 103
MARSHALL         N/A     85  76  74 SW10      30.03S HX  95
ATHENS         PTSUNNY   86  72  62 S12G21    29.97S HX  92
PALESTINE      PTSUNNY   89  76  66 S21G26    30.00R HX  99
JACKSONVILLE   SUNNY     86  76  71 S13       30.03R HX  96
HENDERSON      PTSUNNY   87  77  72 S12       30.02R HX  98
CENTER         MOSUNNY   92  80  69 S9        30.02S HX 110
LUFKIN         MOSUNNY   86  75  69 S9        30.01R HX  95
$$

SUPPLEMENTAL OBSERVATIONS (NWS FORT WORTH AREA)

CITY           SKY/WX    TMP DP  RH WIND       PRES   REMARKS
$$

SUPPLEMENTAL OBSERVATIONS (NWS NORMAN AREA)

CITY           SKY/WX    TMP DP  RH WIND       PRES   REMARKS
GOODLETT         N/A     83  68  60 S16       29.89F
ODELL            N/A     83  72  70 S14       29.91R
CROWELL          N/A     85  71  61 S13       29.92S HX  90
KNOX CITY        N/A     82  69  64 S13       29.92S
SEYMOUR          N/A     84  72  67 S12       29.92S
$$

SUPPLEMENTAL OBSERVATIONS (NWS SAN ANGELO AREA)

CITY           SKY/WX    TMP DP  RH WIND       PRES   REMARKS
WEINERT          N/A     82  73  75 S15       29.93S
HASKELL          N/A     82  69  66 S14       29.93S
THROCKMORTON     N/A     82  74  76 S5        29.94S
STAMFORD         N/A     85  72  65 S22       29.94R HX  91
CLYDE            N/A     83  73  72 S17       29.97S
$$

SUPPLEMENTAL OBSERVATIONS (NWS SHREVEPORT AREA)

CITY           SKY/WX    TMP DP  RH WIND       PRES   REMARKS
$$

SUPPLEMENTAL OBSERVATIONS ARE A COLLECTION OF AUTOMATED INSTRUMENTS
THAT ARE MAINTAINED BY A VARIETY OF FEDERAL AND STATE AGENCIES.
CERTAIN ELEMENTS...SUCH AS HUMIDITY VALUES AND SUSTAINED WIND
SPEEDS...MAY BE APPROXIMATED.





USA.gov is the U.S. government's official web portal to all federal, state and local government web resources and services.